Theta_e
315 315 314 314 314 313 313 312 312 310 310 310 307 311 311 309 306 314 317 320 313 308 301 308 302 298 300 304 302 303 301 300 300 299 300 298 300 298 298 296 295 296 295 295 294 295 292 293 292 294 293 294 297 299 299 299 298 297 294 297 296 303 294 289 291 294 297 299 301 301 302 301 298 300 302 301 298 299 296 296 297 295 297 294 294 293 296
315 314 314 314 314 312 313 312 312 311 310 309 310 309 309 309 310 312 316 316 315 305 295 296 299 303 302 302 300 303 301 300 298 298 299 298 297 296 297 298 299 295 298 296 293 296 290 295 294 293 296 293 299 299 299 299 296 297 294 292 295 289 293 289 285 286 289 292 295 296 300 300 297 295 299 301 302 302 300 299 298 294 299 296 293 288 295
314 314 314 314 313 313 312 312 312 312 311 311 310 306 308 308 313 314 312 319 311 302 301 299 298 299 299 299 297 298 299 301 300 298 298 301 298 297 296 297 298 297 297 295 296 297 294 291 296 296 296 297 301 300 299 300 297 300 302 303 299 293 291 289 283 281 280 281 282 286 289 293 295 298 298 299 300 300 296 291 292 288 296 296 296 294 299
314 314 314 314 313 313 312 312 312 312 311 310 311 309 308 307 299 303 307 309 307 305 306 303 300 299 298 298 297 299 297 299 301 300 299 300 299 299 299 299 299 297 297 294 295 294 297 294 293 294 294 296 299 300 300 300 298 301 304 303 298 294 293 291 288 285 283 286 289 294 296 293 290 293 294 295 297 299 299 298 293 289 293 293 297 302 301
314 314 314 314 313 312 313 312 312 312 311 310 309 310 309 310 302 299 297 305 302 301 302 301 302 297 301 296 298 296 297 298 299 302 296 299 299 298 298 298 295 295 295 293 293 295 294 296 295 294 294 297 298 301 300 300 305 305 301 301 298 294 288 290 291 290 289 290 290 292 294 290 292 292 293 295 295 297 296 293 291 296 293 288 300 301 300
314 314 314 314 313 313 313 312 312 311 310 310 313 310 314 300 304 305 306 297 292 297 298 301 300 301 301 300 299 297 297 296 294 299 300 301 300 296 298 298 298 296 295 294 291 293 293 294 292 295 296 295 298 296 300 298 302 301 297 300 294 292 286 291 291 290 291 292 292 293 292 292 292 292 293 292 294 295 292 295 296 296 291 290 297 300 300
314 314 314 314 313 313 314 313 312 312 310 310 315 305 308 308 307 306 310 302 302 301 301 302 300 299 301 300 298 296 296 295 297 296 297 299 297 298 293 295 297 297 297 296 292 295 289 291 296 296 294 295 295 292 295 298 300 298 297 297 298 293 287 291 291 289 291 291 292 293 292 292 292 292 293 293 293 294 294 296 297 296 295 297 298 300 301
314 314 314 315 314 314 314 313 313 312 310 315 316 309 304 301 302 302 308 307 301 303 302 301 300 297 301 298 296 297 296 295 297 299 296 293 296 300 295 295 297 297 297 297 293 295 295 294 292 296 295 294 296 294 295 293 297 297 295 296 298 291 288 293 291 288 288 291 292 293 292 292 290 292 293 293 294 294 295 296 296 299 297 300 301 301 304
314 314 314 315 314 314 314 314 313 312 311 314 311 308 309 309 311 310 304 301 301 302 303 301 299 296 298 296 297 298 297 296 299 297 301 297 295 297 294 296 296 297 296 296 296 299 298 298 297 298 298 292 298 294 295 297 293 295 294 296 297 295 289 293 290 285 285 290 291 291 292 292 291 290 292 292 292 291 294 294 296 295 294 297 298 298 304
314 314 314 314 315 314 314 314 314 312 312 314 312 305 311 312 314 313 308 301 308 301 301 300 299 294 297 299 297 297 296 299 299 295 300 301 301 300 298 298 296 296 296 296 298 300 300 300 300 301 301 301 300 300 299 298 294 293 293 297 293 293 291 289 288 284 284 289 291 290 290 289 286 288 291 293 294 295 296 296 298 298 298 295 294 300 313
314 314 314 314 315 315 316 315 315 313 313 311 310 308 309 307 306 308 308 301 303 303 300 298 298 299 300 300 299 300 299 299 301 294 296 299 300 302 301 298 296 294 295 299 303 304 303 303 303 303 301 300 299 299 299 299 298 297 294 293 294 294 293 288 292 283 284 288 289 290 286 279 281 294 297 296 294 295 294 294 296 298 299 298 306 307 312
314 314 314 314 315 315 315 315 315 312 312 313 314 312 312 313 311 311 305 299 298 301 299 296 298 299 298 300 299 298 298 298 298 304 297 298 300 301 301 300 302 294 302 306 305 305 305 304 303 303 302 301 300 300 300 298 297 299 297 293 293 292 293 289 292 285 284 287 288 284 279 281 293 297 298 298 300 304 303 303 301 300 303 308 310 313 311
314 314 314 314 315 315 315 315 315 313 312 313 314 312 314 316 311 308 306 302 298 299 298 299 302 301 301 301 300 300 301 301 301 302 301 299 299 301 302 300 299 301 306 304 304 302 298 296 297 297 297 299 299 299 298 297 297 298 298 297 293 291 291 291 289 289 288 285 283 276 279 291 295 296 297 304 303 304 304 302 306 310 311 310 309 311 314
314 314 314 314 315 315 315 316 315 315 312 311 311 314 316 314 309 307 305 301 300 302 303 302 301 300 300 300 301 301 302 302 303 303 299 302 300 300 303 304 305 307 306 305 302 300 295 296 290 291 292 295 296 292 295 298 299 298 297 297 297 296 293 290 285 290 281 284 283 283 290 289 291 292 297 299 297 299 300 294 300 309 311 310 310 311 312
314 314 314 314 315 315 315 315 316 315 314 311 313 316 317 315 314 310 310 307 300 303 302 296 298 300 300 301 301 299 299 300 300 299 302 303 301 303 304 306 307 307 307 302 298 299 295 293 288 287 288 287 283 285 294 291 297 298 298 298 297 298 291 293 286 286 288 283 281 282 281 279 286 295 305 306 304 304 307 300 296 308 309 310 311 311 310
314 314 314 314 315 315 314 315 315 315 314 310 314 315 319 317 318 316 311 307 303 294 299 304 304 302 301 301 302 300 298 298 298 298 299 304 302 304 306 308 308 308 305 303 302 297 295 290 287 286 284 286 290 288 286 293 291 298 298 298 298 297 296 296 289 286 287 284 281 280 278 283 292 295 300 304 304 304 304 297 292 305 308 310 310 308 309
313 313 314 314 315 315 314 314 315 315 315 311 310 313 317 321 317 312 309 308 306 299 305 306 305 304 302 300 303 300 301 297 299 295 294 297 299 302 305 308 309 307 305 301 299 295 292 290 291 289 289 292 287 286 291 290 286 288 298 299 294 293 293 290 286 287 286 285 282 280 285 283 294 298 300 302 304 304 300 286 288 304 308 310 309 307 307
313 313 314 314 315 315 315 314 315 315 314 312 311 311 314 323 321 318 314 309 303 304 306 308 304 302 300 302 301 304 304 303 302 304 299 300 302 302 302 305 302 306 306 298 297 293 291 290 286 286 285 294 294 293 282 288 286 285 286 289 287 290 291 289 284 285 286 286 284 286 287 295 300 300 300 304 305 300 287 283 295 305 308 309 309 309 308
313 313 313 314 314 314 314 314 315 315 315 310 313 316 319 322 322 320 313 309 307 300 308 310 310 307 309 309 307 308 307 306 304 298 297 297 302 304 305 304 305 298 305 296 297 293 290 289 294 291 287 289 293 285 291 285 285 292 290 283 287 288 290 290 289 285 284 285 283 283 288 297 301 301 303 305 301 286 284 300 306 307 307 309 310 309 310
313 313 314 313 314 314 314 314 314 315 315 311 311 310 314 320 324 320 312 306 307 304 308 309 309 306 310 306 304 305 306 305 304 300 299 295 305 305 301 298 303 303 300 299 290 294 290 288 290 293 289 288 290 294 289 291 294 285 285 292 287 287 285 283 285 288 287 286 283 281 278 294 301 300 298 303 293 294 302 304 307 308 307 307 309 310 310
313 313 313 314 314 314 314 314 314 314 315 315 311 312 313 323 322 323 321 314 306 302 305 312 312 310 311 309 309 309 307 300 305 300 303 301 308 304 290 292 297 299 295 295 287 290 293 289 291 290 294 292 292 292 284 286 288 297 294 290 289 293 286 285 287 291 283 283 281 282 294 295 301 299 291 297 300 304 306 308 305 307 308 308 308 309 310
313 313 313 314 314 314 314 314 314 314 314 314 311 312 309 320 323 323 322 320 308 304 307 312 313 311 313 314 313 312 311 309 311 310 305 302 308 305 303 303 303 302 302 301 296 295 296 295 296 291 288 290 296 287 290 285 282 290 298 295 284 295 291 292 285 293 289 287 290 296 298 301 302 302 300 301 303 308 310 309 309 307 308 310 308 309 310
313 313 314 314 313 314 314 314 315 314 314 314 313 312 311 316 319 323 322 312 313 313 314 312 314 314 315 315 317 317 318 317 314 312 312 304 302 306 304 304 302 308 307 305 298 296 296 295 291 294 291 293 290 289 291 290 286 291 288 296 293 298 297 298 295 292 297 298 298 299 300 299 298 300 302 301 302 305 308 310 307 308 308 309 308 309 309
313 313 313 314 314 314 314 314 314 314 315 315 314 312 312 315 316 317 318 313 308 305 310 313 310 308 309 310 315 317 316 314 314 314 320 314 302 304 308 311 309 307 306 307 308 300 299 298 296 297 290 294 295 290 286 285 289 292 292 291 295 297 297 294 290 294 290 286 298 297 296 296 297 297 300 303 304 303 304 306 306 306 307 308 309 309 309
313 313 313 314 314 314 314 314 314 315 315 315 314 314 314 312 315 317 311 305 306 305 299 303 307 312 314 316 315 314 316 316 316 315 314 314 311 304 303 307 311 305 304 307 308 305 303 296 296 295 289 297 297 287 295 289 289 296 288 290 290 291 298 293 292 290 288 289 294 296 296 296 299 299 298 297 299 301 302 304 306 307 308 308 308 309 309
313 313 313 314 314 314 314 314 314 315 315 314 314 312 311 313 320 322 318 315 312 308 301 301 306 316 316 313 311 314 316 316 314 314 314 315 314 312 311 314 313 315 312 312 309 303 301 299 298 297 292 292 301 291 291 295 294 297 292 289 294 293 296 288 291 288 291 294 295 295 295 296 297 298 298 299 299 299 300 302 304 306 307 307 308 309 309
313 313 313 313 313 314 314 314 314 314 314 313 313 312 312 314 317 316 314 313 306 302 305 302 307 311 314 311 315 316 316 315 313 312 312 314 313 313 312 312 310 311 309 308 308 305 303 299 298 294 297 295 298 296 297 295 295 293 291 293 297 293 288 291 290 286 286 287 290 293 288 288 293 296 298 299 300 301 301 302 303 304 306 307 307 307 309
313 313 313 313 313 313 313 313 314 314 313 314 313 312 314 313 315 318 320 318 310 301 302 302 303 307 314 311 316 316 316 315 313 311 310 311 312 311 310 309 309 308 307 305 301 300 299 295 294 300 301 300 295 294 299 299 298 295 293 292 295 290 290 290 286 286 286 292 294 295 295 295 296 297 299 300 302 302 302 303 303 305 306 308 307 307 307
313 313 313 313 313 313 313 314 314 314 314 312 312 312 312 314 316 317 319 321 319 310 307 306 309 307 302 307 315 313 316 315 311 310 309 310 311 311 310 310 310 308 308 307 304 302 300 299 303 298 297 301 297 293 295 289 290 287 291 296 297 297 298 295 294 294 294 296 297 299 297 294 297 300 301 302 304 305 304 305 306 306 306 307 308 308 307
312 313 312 312 313 313 313 313 314 314 314 312 311 309 308 312 317 317 318 320 318 314 304 301 298 303 312 311 310 314 313 313 311 310 309 309 308 313 311 310 309 310 307 303 304 298 301 301 301 303 303 308 298 296 291 291 289 292 297 298 299 299 299 299 299 295 293 299 300 301 300 301 302 303 304 305 306 306 304 305 306 306 307 308 307 307 309
312 312 313 312 312 313 313 313 314 314 313 311 310 307 307 305 312 320 318 321 322 314 308 306 301 307 306 312 312 312 313 313 310 309 309 309 308 308 311 311 310 310 304 304 302 303 303 297 300 301 304 303 300 295 290 288 286 290 296 298 298 299 298 299 301 301 301 301 302 303 303 303 303 304 304 304 304 305 305 305 308 311 310 310 309 309 309
312 312 312 312 312 312 313 313 314 314 311 309 309 311 311 313 316 317 319 319 318 312 305 300 300 301 302 309 316 318 314 315 313 313 312 314 308 310 311 311 309 311 307 303 305 302 300 302 300 300 300 304 301 296 293 288 285 285 297 298 300 300 300 300 301 302 303 304 302 300 299 299 302 300 299 304 305 307 306 307 307 308 312 312 311 311 311
312 312 311 311 311 312 312 313 314 313 311 312 312 312 312 312 312 314 317 320 316 311 311 304 298 301 300 307 312 314 315 316 311 313 307 313 308 312 307 311 309 307 312 305 299 297 304 303 303 299 301 304 298 296 289 287 288 297 300 300 301 301 301 303 302 303 303 303 303 296 295 297 300 303 305 305 306 306 306 307 308 307 309 309 309 309 309
312 311 311 311 311 312 312 313 314 312 312 309 308 311 316 314 314 312 320 321 314 314 312 304 299 299 299 314 304 310 314 308 307 310 303 313 314 310 307 307 308 303 306 301 303 301 304 303 299 301 302 298 300 294 287 291 298 299 301 301 301 301 300 300 301 301 302 303 304 304 303 303 304 305 305 304 304 306 307 307 307 305 305 307 308 308 309
311 311 312 312 312 313 313 312 310 309 307 310 311 317 320 316 315 315 317 315 305 304 304 304 303 298 298 300 299 306 315 310 304 311 304 309 315 308 307 303 304 299 302 309 302 300 299 299 304 296 290 299 292 287 288 296 298 300 301 301 302 301 300 298 298 300 302 302 303 303 304 304 303 301 302 303 303 304 305 305 306 305 303 304 306 308 310
311 312 312 313 313 313 312 311 310 310 309 311 315 318 318 318 318 321 321 322 314 305 303 303 303 298 299 294 295 304 313 306 310 308 306 309 307 311 309 305 297 302 308 302 298 302 297 305 301 289 299 291 289 290 294 299 299 299 300 300 301 301 300 299 299 300 301 303 303 303 302 303 302 301 302 302 302 303 304 304 304 304 303 303 305 306 308
312 313 313 312 312 312 310 312 314 313 315 318 317 319 320 321 321 321 318 314 318 317 305 302 299 299 300 300 305 309 309 300 310 304 307 304 301 307 305 301 297 303 302 299 299 298 300 307 298 288 288 287 291 302 302 302 301 301 300 302 302 303 302 302 303 301 299 300 301 301 301 301 301 301 301 301 301 302 302 302 302 302 301 302 304 305 306
313 313 313 312 312 312 314 316 317 319 319 318 317 314 313 314 308 309 309 306 310 312 307 305 299 302 309 304 298 311 306 303 309 301 302 307 301 301 305 301 300 300 290 295 297 303 301 297 290 287 289 300 301 302 303 303 303 305 304 303 304 303 302 303 302 300 297 296 297 298 299 299 299 300 300 300 301 301 301 303 303 304 304 304 305 305 306
311 313 314 315 314 313 315 316 318 318 317 317 318 312 309 311 308 304 305 307 308 303 307 304 301 307 306 303 306 313 306 304 301 301 297 305 301 295 302 294 300 300 292 294 293 305 293 294 294 291 288 297 299 300 304 304 305 304 305 305 305 304 304 303 304 301 299 297 298 300 299 298 298 299 301 301 302 303 303 303 303 303 303 304 305 305 305
313 313 315 316 315 318 319 318 318 318 318 312 314 309 304 310 303 297 311 300 299 307 308 301 308 309 307 302 302 302 312 306 298 297 299 301 304 296 301 300 299 296 288 289 294 303 291 285 291 288 288 296 298 300 302 304 304 304 305 305 305 305 305 305 305 304 303 302 302 302 302 302 303 302 302 301 301 301 301 302 303 303 303 303 305 304 303
315 317 319 315 319 322 321 319 318 317 313 309 310 309 306 298 307 309 305 300 299 302 310 307 310 305 307 308 305 300 313 314 313 311 306 299 308 307 298 293 303 293 290 287 298 299 295 289 287 286 292 298 300 301 303 304 304 304 306 306 306 305 304 304 305 304 304 302 302 302 303 303 303 302 303 303 302 302 302 302 303 303 304 303 302 303 305
316 315 317 318 319 321 324 318 316 312 312 314 303 294 299 304 308 308 304 295 298 303 308 307 302 305 306 308 307 309 311 318 313 310 304 297 305 300 296 298 299 291 286 296 301 297 295 286 285 288 294 299 302 304 303 303 303 304 305 306 305 306 304 304 304 304 304 302 302 302 303 303 303 303 303 303 302 302 303 303 303 303 303 304 304 303 304
312 313 315 316 318 318 319 305 314 311 296 295 294 290 296 291 298 297 300 308 310 306 309 315 311 312 312 313 312 312 311 316 309 306 302 298 305 302 296 294 294 286 293 300 297 292 288 285 285 292 299 300 302 302 303 304 304 304 304 305 305 305 304 305 304 304 303 303 303 303 303 303 304 304 304 303 303 303 304 304 304 303 303 303 303 303 303
318 318 315 317 313 316 315 294 313 306 296 296 292 288 295 294 299 301 300 303 305 306 308 305 305 303 300 310 307 309 308 310 311 308 301 305 301 295 295 288 291 299 304 295 292 286 287 293 294 297 299 302 304 305 304 305 304 304 304 306 306 305 305 305 304 304 303 304 303 303 304 304 304 304 304 304 303 302 302 303 304 305 304 303 303 303 303
314 314 311 308 299 305 298 288 308 296 289 294 297 298 298 294 297 299 299 306 307 304 309 308 306 305 303 310 313 309 307 303 312 303 296 301 296 296 292 291 298 298 292 288 290 291 291 290 296 298 299 300 302 304 304 304 305 304 304 304 305 305 304 303 304 303 302 302 302 303 302 303 303 303 303 302 303 303 303 302 303 304 303 303 303 303 303
313 304 301 297 292 293 294 291 292 289 303 306 302 306 302 301 302 301 306 309 310 308 305 306 306 306 302 311 302 303 307 308 299 301 304 302 292 290 299 304 301 291 288 290 285 283 287 291 295 297 300 303 303 305 305 305 305 305 303 302 303 304 304 304 304 304 302 302 303 303 302 303 303 303 302 303 302 303 303 303 304 303 303 303 302 302 303
310 315 305 300 295 298 308 292 296 303 306 306 308 306 305 306 308 308 309 309 307 308 307 310 308 306 301 301 304 305 308 306 299 305 305 295 293 296 304 295 287 289 284 282 284 286 291 295 298 300 302 304 304 305 304 305 305 305 303 303 304 304 304 304 304 304 303 303 302 302 302 303 302 303 303 302 302 302 303 304 304 305 304 302 303 303 303
300 311 309 295 292 296 295 304 310 308 311 309 308 309 309 311 308 307 311 311 312 309 307 306 304 304 302 311 307 298 300 305 298 299 302 297 299 295 287 290 290 290 290 287 288 292 294 296 299 302 303 305 304 304 304 304 305 305 305 303 302 302 303 304 304 303 304 302 302 302 302 303 302 302 303 302 301 302 303 303 304 304 304 303 303 303 303
316 304 298 297 304 304 303 309 307 305 306 309 309 309 310 308 308 308 312 315 310 309 309 309 306 305 299 304 299 299 296 301 292 290 298 297 290 285 286 283 285 283 291 294 294 295 296 300 303 304 303 303 304 304 305 303 304 304 303 303 303 304 304 304 305 304 304 303 302 302 302 302 302 303 303 302 301 301 302 303 304 304 304 303 303 303 302
305 302 309 303 305 306 311 309 307 304 307 308 309 308 309 307 306 309 314 312 312 311 310 311 310 302 302 300 292 296 293 301 298 294 294 290 291 291 290 284 287 286 290 295 295 298 300 301 302 302 303 303 303 303 303 303 304 305 303 302 306 306 303 304 304 304 303 303 303 303 303 303 302 301 302 301 302 303 304 303 303 303 303 303 303 302 303
317 307 305 312 306 304 305 301 302 301 303 305 307 307 308 307 307 309 315 315 313 307 306 300 302 300 293 292 290 287 290 302 298 292 290 290 294 292 287 284 290 294 295 297 299 301 301 302 302 301 300 301 302 303 304 304 304 304 303 306 303 302 304 302 303 302 302 303 304 304 303 304 302 303 305 304 303 303 303 303 303 303 303 303 303 303 303
300 297 302 308 312 311 310 310 311 309 308 309 309 312 313 309 311 315 318 316 310 302 298 305 303 295 290 289 294 299 303 297 293 293 291 294 297 291 291 292 294 298 298 299 301 302 302 304 304 302 300 301 303 303 304 304 304 302 303 303 303 302 304 303 302 302 302 302 302 302 303 303 303 303 304 304 302 302 300 300 302 302 303 302 302 303 303
Wind_Speed
19 19 20 20 21 20 21 22 21 21 24 13 9 7 4 2 6 7 4 3 6 3 4 1 4 6 4 3 6 6 6 5 10 12 3 5 10 6 2 6 4 9 9 8 6 10 4 6 3 6 11 10 10 8 12 10 8 6 7 9 9 9 2 5 9 11 12 16 16 16 11 8 9 8 10 9 7 8 6 5 8 9 3 7 3 5 10
18 19 19 20 20 20 21 21 20 18 16 8 9 5 4 6 5 5 4 4 3 1 3 3 3 1 3 2 5 5 1 10 12 8 9 7 8 11 9 8 3 5 9 6 6 4 2 4 9 3 5 4 6 6 8 12 7 6 3 3 7 3 2 4 6 7 10 11 9 10 7 12 9 9 10 14 15 13 8 4 9 6 7 13 5 6 9
18 18 18 19 20 21 21 21 20 17 13 10 4 4 6 6 4 5 1 3 6 3 6 3 5 6 7 7 8 5 1 8 9 7 11 8 7 7 7 10 10 2 7 4 5 6 3 4 6 11 7 3 7 11 11 8 4 5 6 7 4 1 3 4 2 4 6 6 4 5 9 12 11 9 16 16 15 16 13 7 6 2 8 12 5 3 6
17 18 18 19 20 21 21 21 21 19 15 12 4 3 4 3 3 5 4 6 6 6 6 6 7 7 7 7 6 3 8 6 8 7 5 7 4 7 8 7 9 10 4 4 7 8 7 7 4 6 6 6 4 11 11 4 2 4 5 7 5 1 3 2 2 4 8 9 10 12 13 13 12 19 19 18 16 14 8 1 2 3 6 7 6 3 14
18 18 18 18 19 21 22 23 23 22 17 12 4 3 3 5 2 4 5 4 7 6 8 9 8 6 6 2 5 8 4 6 5 5 3 7 10 3 8 6 7 7 7 9 7 8 10 12 10 7 8 11 10 12 10 9 13 11 5 4 1 0 3 5 6 9 11 14 15 18 17 17 18 17 17 16 16 14 12 4 5 7 8 8 2 9 12
18 19 19 19 18 20 22 23 25 26 25 17 2 3 2 2 4 3 2 1 2 4 4 6 7 9 10 1 4 10 4 6 6 4 5 1 11 7 5 7 6 7 8 6 4 8 9 6 5 10 7 8 9 9 12 11 3 0 2 2 3 2 4 7 8 10 12 12 14 15 15 13 16 18 16 15 15 14 14 7 7 6 4 8 12 13 10
18 18 19 20 18 20 22 23 25 27 30 17 3 5 4 3 4 4 10 3 0 1 8 6 7 9 7 3 8 10 9 10 11 6 3 6 9 9 4 7 11 9 10 6 4 3 4 4 5 3 6 8 8 5 7 8 9 4 0 1 1 1 3 6 8 11 12 13 14 14 15 15 15 17 15 13 15 15 16 14 7 9 9 11 11 12 13
18 17 18 18 17 19 21 23 24 26 29 17 2 7 6 6 5 5 10 6 5 9 4 4 6 5 4 2 6 8 8 10 10 9 9 6 8 8 4 7 9 10 9 4 3 6 7 8 7 7 8 7 5 5 5 3 6 5 2 2 1 1 2 7 8 7 9 12 14 14 15 14 15 14 15 13 13 16 16 14 9 11 12 6 9 9 5
17 16 17 17 17 18 19 20 23 26 25 5 8 6 7 6 6 4 4 7 4 6 6 3 5 5 6 4 6 5 8 7 4 6 7 10 7 6 8 8 8 8 9 8 7 7 9 10 10 9 7 6 6 5 4 7 7 6 5 1 3 2 3 5 5 5 8 10 11 14 14 15 16 15 15 11 10 14 11 8 4 9 10 11 12 9 4
16 15 17 17 16 17 17 18 20 22 21 6 6 8 8 6 6 5 4 3 1 3 8 8 4 5 4 4 6 5 6 5 9 5 6 8 6 5 7 7 6 6 6 6 7 9 9 9 10 8 8 8 9 9 10 9 8 5 5 1 2 3 2 2 2 4 8 10 12 14 14 13 12 10 10 11 10 12 11 11 10 12 12 11 6 2 3
15 15 15 15 15 16 16 17 17 18 11 8 6 6 7 8 7 7 3 4 1 0 4 6 5 3 5 4 3 3 2 5 6 3 2 5 6 7 7 8 5 4 6 7 10 9 9 9 11 8 9 10 11 9 10 14 11 9 7 3 2 2 2 2 1 5 7 11 12 11 8 8 8 8 13 10 12 11 14 15 11 10 12 4 5 7 7
14 14 14 14 14 15 15 16 16 16 12 6 3 3 6 6 5 2 4 4 7 9 6 5 5 6 8 9 10 9 10 8 7 2 5 5 7 7 7 6 3 3 7 9 10 11 12 10 12 9 10 12 13 13 14 15 12 8 7 8 3 4 2 2 0 2 5 7 8 7 8 8 6 12 10 11 11 12 12 15 11 11 5 8 7 5 8
14 13 13 13 14 14 13 14 15 14 14 8 6 5 6 7 4 4 3 3 1 4 4 3 7 10 6 8 6 7 7 5 4 3 4 4 4 5 4 5 5 6 8 9 10 9 9 8 8 9 12 12 10 10 12 12 11 10 8 8 5 3 4 2 1 1 3 5 3 5 7 5 11 13 13 9 7 9 14 10 10 14 12 9 9 11 4
13 12 12 12 13 13 13 13 13 14 14 11 6 6 4 5 6 6 5 4 4 6 5 3 9 6 7 6 4 3 4 3 2 2 5 2 4 5 4 3 6 6 6 7 6 6 5 2 4 4 5 3 2 4 4 4 4 7 8 6 4 3 3 4 2 4 3 2 5 9 10 13 11 10 5 4 6 7 5 3 7 9 10 14 9 8 5
12 11 11 11 12 11 11 12 13 13 14 13 5 5 4 5 4 3 4 3 3 2 6 4 5 5 5 4 5 4 4 5 7 4 5 4 3 3 2 5 5 7 8 6 3 2 2 3 4 4 4 2 3 3 5 3 3 7 7 8 3 1 3 2 2 1 4 3 4 4 7 9 6 6 4 4 7 5 3 3 3 8 13 14 10 7 10
11 10 10 10 11 10 11 11 12 12 12 12 5 5 2 3 3 3 3 2 3 1 3 3 4 2 2 3 4 4 4 4 5 5 5 1 3 3 3 5 6 6 6 5 0 2 2 3 4 4 3 4 0 3 2 3 3 1 4 6 4 4 5 0 5 2 0 2 4 4 5 7 2 7 11 13 9 11 11 5 4 3 10 13 12 12 10
11 10 9 9 10 9 10 10 10 10 10 10 5 5 3 3 3 4 5 3 2 2 5 9 7 5 3 4 2 4 2 2 2 3 3 5 7 7 7 9 5 5 6 3 2 2 3 3 4 3 4 5 4 5 6 2 1 3 0 1 5 4 2 4 2 1 2 2 2 4 3 3 10 14 13 16 13 8 6 6 3 8 13 12 12 11 12
10 9 9 9 8 9 9 9 10 10 10 8 5 4 4 2 3 4 2 3 3 2 6 6 6 2 3 1 2 2 3 2 2 1 3 6 3 3 5 5 4 3 3 2 2 3 3 3 4 2 3 3 1 2 2 4 2 1 1 4 3 1 0 4 5 4 4 4 4 5 6 3 4 9 13 12 14 4 3 4 5 10 12 11 9 10 8
10 9 8 8 8 8 8 8 9 9 9 8 7 4 1 2 2 2 2 3 2 3 7 7 3 2 1 4 2 2 1 2 1 2 3 3 1 7 8 2 3 2 1 1 0 2 3 3 2 2 3 2 2 0 3 3 1 1 1 2 2 3 2 3 3 4 5 4 7 8 4 2 4 8 8 6 6 3 2 3 4 8 11 12 12 10 7
10 9 8 7 8 8 7 6 7 8 8 6 4 3 5 7 1 2 3 3 3 5 7 9 2 3 2 3 3 1 1 3 3 2 2 3 3 7 4 1 0 1 1 2 1 2 1 4 4 1 1 0 1 4 3 2 1 0 1 0 1 3 1 2 2 2 4 4 6 5 6 0 9 10 5 5 4 4 4 6 7 4 6 9 10 10 6
9 9 8 8 7 7 8 8 6 6 7 5 3 3 4 1 1 2 0 1 3 4 5 1 9 9 9 7 6 2 4 4 2 3 1 4 1 0 1 2 3 1 2 2 2 2 1 2 3 2 1 2 0 2 1 2 4 1 1 1 3 5 3 2 1 2 1 1 4 2 1 5 10 8 3 5 5 4 4 2 6 5 3 4 5 6 5
9 8 8 8 8 7 7 7 7 7 7 4 1 2 3 2 1 2 1 1 3 5 4 10 10 10 11 11 8 5 4 3 5 4 2 2 1 2 2 3 0 1 1 1 1 1 2 1 1 2 3 3 2 2 2 3 2 1 2 3 2 3 2 0 3 3 1 3 4 6 8 7 5 8 9 8 9 5 2 3 5 8 7 3 4 6 4
10 8 8 8 7 7 6 7 7 6 6 5 3 3 4 4 2 1 1 3 4 7 8 9 8 8 9 11 11 7 1 1 2 5 4 3 2 2 3 2 2 1 1 0 1 1 1 1 3 1 3 1 1 4 2 3 1 2 2 2 1 1 2 3 3 3 4 9 12 12 8 8 11 10 8 11 11 8 6 4 6 7 9 8 7 6 5
9 9 8 8 8 7 7 6 7 6 6 5 3 4 4 4 5 5 2 3 3 6 6 5 4 3 6 9 10 8 4 5 5 5 2 3 1 1 1 2 2 2 2 2 2 0 2 1 2 1 3 2 2 3 1 1 2 3 2 2 2 3 2 4 3 6 5 4 4 10 12 12 13 13 12 8 9 12 11 7 6 8 10 12 12 10 7
9 8 8 8 8 7 7 7 6 7 5 4 4 5 5 5 4 4 3 4 2 3 4 4 6 6 7 3 5 2 6 4 5 8 6 6 3 3 1 4 1 1 2 3 3 1 2 1 1 0 3 0 1 3 2 1 1 1 1 1 3 1 3 6 5 7 4 6 11 10 12 13 9 7 9 12 14 15 14 14 12 8 9 10 11 13 12
10 8 8 8 7 7 7 7 7 6 5 5 5 4 4 5 2 3 2 2 3 3 4 5 4 5 3 6 6 3 3 6 7 10 8 6 8 6 4 2 2 1 1 1 1 1 1 2 3 2 2 1 2 1 2 2 0 2 2 2 2 5 5 2 6 5 7 10 6 12 18 11 5 9 12 12 13 14 17 17 17 14 10 10 11 11 12
9 9 8 8 7 7 6 6 7 6 5 4 4 5 5 5 5 4 4 2 4 3 5 5 4 8 9 11 9 8 8 8 8 9 9 9 10 8 5 2 3 2 1 1 1 1 1 3 1 4 2 1 1 1 1 2 2 2 2 4 0 1 0 2 4 5 4 3 7 11 9 10 13 16 14 16 16 17 17 16 17 15 10 9 10 12 12
9 9 9 8 7 6 6 5 6 6 3 3 5 6 5 6 6 5 4 2 3 3 5 6 8 9 11 15 13 10 9 7 8 8 10 9 9 7 5 6 5 3 2 2 2 3 3 3 4 2 2 1 1 2 4 1 2 1 1 2 1 2 1 0 1 3 5 7 10 9 10 13 12 13 16 16 15 15 16 15 15 15 11 9 10 11 12
10 9 9 8 7 6 6 5 5 6 5 4 4 5 7 8 8 8 7 4 1 3 5 8 8 8 5 5 4 2 4 6 7 8 8 9 8 8 1 6 5 2 2 2 1 2 2 3 1 4 1 1 1 2 3 2 3 1 3 4 4 3 5 6 6 6 10 10 8 9 9 11 13 15 16 16 12 12 14 14 13 13 11 9 10 10 10
10 9 8 8 8 7 6 5 5 5 6 5 3 3 4 3 6 8 7 5 3 1 3 5 7 3 7 6 6 4 3 6 8 9 10 8 7 2 10 8 4 3 2 2 1 2 1 2 2 1 2 2 1 2 2 2 3 1 2 3 3 4 6 8 7 6 6 5 7 8 8 10 11 11 13 12 10 12 11 12 14 13 12 11 12 11 9
11 10 9 8 8 8 7 7 7 7 6 5 3 3 3 1 2 6 7 4 4 2 3 3 7 7 7 6 7 6 5 6 7 8 8 6 6 6 5 7 2 6 4 4 2 2 0 4 1 1 3 2 1 1 2 1 2 1 3 2 3 4 5 7 6 7 8 7 7 7 7 7 9 10 9 10 13 13 13 13 16 15 13 11 11 11 10
11 10 8 8 9 8 8 7 8 9 6 7 6 1 3 2 1 6 1 6 4 1 3 5 6 4 4 2 1 2 5 3 6 4 2 2 4 5 2 4 4 3 3 4 2 2 4 2 3 3 3 3 3 2 2 2 3 1 0 1 3 4 6 5 4 6 6 5 6 6 4 6 7 10 10 13 13 13 12 13 15 15 13 10 8 8 9
10 10 9 10 8 8 9 7 9 9 7 7 16 18 14 15 15 11 3 5 2 1 1 3 5 4 4 1 2 2 4 1 3 2 3 2 2 1 2 5 3 2 3 3 4 3 1 3 2 4 2 4 2 2 3 4 2 1 1 0 0 2 4 3 6 4 5 3 2 3 7 9 10 11 11 11 11 11 13 12 14 15 11 5 5 6 7
11 10 9 7 5 6 6 6 5 5 6 6 6 7 7 13 11 12 4 2 0 1 1 3 4 5 6 1 2 3 5 2 1 1 2 1 1 1 1 2 2 1 5 5 2 2 1 0 2 2 2 3 2 2 3 1 4 1 0 2 1 3 3 3 2 5 6 3 3 4 5 7 8 8 9 10 11 10 11 10 12 16 15 11 8 5 4
9 7 4 1 4 5 6 7 5 5 5 5 6 4 4 10 16 9 7 4 2 3 3 4 3 4 5 3 2 1 3 2 2 0 2 2 1 0 2 3 2 2 3 3 2 4 4 4 5 4 4 2 3 2 3 1 2 1 0 1 1 1 3 3 2 4 2 4 2 3 4 6 8 9 9 10 11 11 11 10 11 12 12 12 12 11 8
5 1 4 5 6 7 5 3 5 5 4 4 1 4 9 11 9 4 3 2 2 3 4 3 2 5 4 4 5 2 4 5 2 3 3 1 1 1 1 1 4 3 2 3 3 4 5 3 3 3 3 3 3 2 1 2 1 1 0 0 0 2 2 2 3 3 1 2 1 2 4 6 7 7 8 8 9 10 11 10 10 11 12 12 13 13 10
3 3 4 6 5 3 4 4 4 6 2 4 8 6 6 5 3 2 1 2 0 1 3 4 6 6 3 4 1 2 1 4 1 1 1 1 1 2 2 2 4 1 2 3 4 4 2 3 2 1 0 2 2 1 2 2 1 1 1 0 0 1 3 2 3 3 3 3 2 2 3 4 5 6 7 8 9 9 10 12 10 10 11 12 13 12 12
4 4 3 3 3 3 3 4 2 7 11 12 11 5 1 2 4 4 3 3 3 4 4 3 7 5 1 2 5 3 3 3 2 1 2 1 2 1 2 2 1 1 2 2 1 3 3 3 1 2 1 3 4 3 1 3 2 1 2 0 1 1 4 3 1 2 3 4 3 2 4 6 6 6 7 9 9 10 9 9 9 8 9 10 10 11 12
3 4 3 2 3 3 2 2 6 14 7 3 3 3 3 3 2 3 4 3 3 4 4 4 6 5 4 4 3 3 3 0 0 1 3 1 1 3 0 2 0 1 2 0 3 4 2 1 1 2 2 5 3 2 3 3 1 3 2 2 2 3 5 1 0 1 2 1 3 2 1 3 6 7 7 7 7 7 7 8 9 9 10 10 10 10 11
4 3 2 2 3 1 3 3 7 4 3 3 3 2 3 4 4 1 2 2 2 2 3 5 3 2 2 7 8 3 4 4 3 2 3 1 1 2 0 1 1 2 2 1 2 2 2 2 3 2 3 3 2 3 7 2 2 2 1 1 2 3 4 1 1 2 1 3 3 3 2 2 3 4 6 6 7 8 9 8 8 7 9 9 11 10 10
4 3 3 3 4 3 2 5 4 3 3 2 2 3 2 2 4 2 2 2 3 2 2 3 2 1 5 9 6 5 2 2 1 2 2 2 0 1 1 2 1 2 1 1 1 1 1 0 1 3 1 3 2 5 6 3 2 3 2 2 1 1 5 3 0 0 2 3 3 3 2 3 3 3 4 5 6 6 7 8 9 9 10 10 11 10 9
2 2 4 5 7 6 2 3 3 3 3 2 2 1 3 3 2 3 1 2 1 1 1 1 1 6 5 9 4 2 2 1 1 1 2 1 1 2 2 1 2 2 1 2 0 1 1 2 2 2 3 4 5 2 1 2 2 1 1 1 0 1 5 2 1 1 3 4 3 2 2 3 3 2 3 4 5 6 6 7 9 9 8 8 8 9 11
13 8 4 3 4 3 3 2 4 3 1 1 1 2 2 1 1 3 2 2 3 2 4 3 3 7 3 2 1 2 0 2 1 2 2 2 0 2 1 1 1 2 1 1 1 1 2 2 0 1 3 5 5 5 4 1 3 3 3 2 3 1 5 2 3 1 4 3 2 2 2 2 2 2 3 3 4 5 6 6 7 7 7 7 8 9 10
5 4 4 3 3 2 2 2 2 2 1 1 1 1 2 4 2 0 2 2 3 3 1 2 2 6 4 5 3 2 2 1 2 0 2 0 1 1 2 1 2 1 0 1 1 1 1 1 3 3 0 3 1 2 3 2 2 0 1 2 2 1 2 1 3 1 4 3 3 2 2 2 2 2 2 2 4 5 6 6 7 8 7 7 7 7 8
3 2 2 1 1 1 1 2 2 1 2 2 1 4 4 7 6 6 5 3 2 2 2 3 5 3 6 3 2 2 2 2 3 3 2 1 1 1 1 2 2 1 0 2 2 2 1 3 3 2 3 3 2 1 4 4 2 2 0 0 0 1 2 3 2 1 4 3 3 2 2 2 2 2 1 3 3 3 4 5 6 7 6 6 6 7 8
3 1 1 1 4 2 1 1 0 1 1 2 2 1 5 7 6 8 7 6 2 1 3 5 5 5 6 2 3 1 3 1 3 2 0 1 1 2 3 1 1 1 2 3 2 0 2 2 4 4 4 1 2 1 3 2 2 3 3 0 1 1 0 1 2 1 4 3 3 2 2 2 2 2 2 2 2 3 3 4 5 6 6 5 6 6 5
3 3 1 1 2 2 2 1 1 0 2 2 2 1 5 5 5 6 5 4 4 4 5 3 4 4 6 6 3 2 2 1 0 1 3 1 3 1 1 2 2 3 1 1 2 2 3 1 3 4 1 2 1 1 2 2 2 1 4 3 2 2 2 1 1 1 3 5 3 3 2 1 2 1 0 2 2 2 3 4 5 6 6 6 6 5 5
2 2 1 1 2 1 3 0 1 2 1 2 5 2 2 3 3 5 3 2 2 4 5 5 4 4 4 2 4 2 3 2 1 2 1 2 1 1 1 2 2 3 4 3 2 4 3 3 4 3 1 0 1 2 1 1 1 0 1 4 5 4 2 1 1 0 3 5 3 3 3 2 4 2 2 2 2 2 3 4 4 4 5 5 5 5 5
3 1 1 1 2 2 3 3 3 3 4 3 2 2 3 5 5 4 2 2 3 3 4 2 1 2 4 3 3 2 2 2 2 1 1 2 2 1 2 3 4 2 2 2 1 3 3 2 2 3 3 3 2 2 1 3 2 0 2 3 1 3 3 1 2 1 5 5 3 3 4 3 1 2 3 2 2 2 3 3 3 4 5 5 5 5 4
1 1 2 1 4 5 1 1 2 5 3 2 2 3 3 4 4 2 2 3 2 3 2 2 0 1 2 3 2 2 1 1 1 0 1 2 2 2 2 2 1 0 1 1 2 3 3 5 5 4 4 4 4 4 4 3 3 3 4 4 2 1 2 0 1 2 7 6 4 2 2 3 2 3 1 1 1 2 2 2 3 3 4 4 4 4 5
2 1 3 6 6 4 3 5 5 8 7 5 4 3 3 4 4 3 2 1 2 3 2 2 1 1 1 1 1 1 1 1 1 3 2 3 2 3 1 1 2 1 1 2 3 2 3 5 4 4 5 6 5 4 3 4 5 8 5 2 4 4 2 2 2 3 9 7 3 4 2 0 2 2 1 1 0 1 1 2 2 2 3 3 4 4 4
1 1 3 1 1 3 4 3 2 5 6 4 5 3 2 3 5 1 2 2 3 3 4 2 1 1 1 1 2 2 2 1 1 2 2 2 2 4 4 4 3 1 1 3 3 3 1 2 1 2 3 4 5 6 5 1 3 4 7 4 2 3 1 2 4 4 4 4 4 5 3 2 6 5 2 1 2 1 2 1 1 2 3 3 4 5 4
Wind_Direction
340 340 339 337 339 340 340 342 343 350 352 5 352 317 299 326 311 296 235 151 246 260 256 28 23 1 14 224 63 352 18 331 24 20 3 12 12 313 115 60 35 44 7 22 14 19 343 344 346 22 70 52 49 34 31 13 22 358 18 359 25 331 287 324 309 310 297 292 290 299 311 301 299 321 334 340 317 324 335 336 347 321 236 185 205 228 260
342 341 340 339 339 339 340 340 344 352 12 353 316 314 344 321 298 301 138 253 172 96 340 1 37 180 115 52 19 87 324 36 36 11 8 44 352 350 27 36 38 31 32 3 11 26 302 53 6 351 74 98 114 86 50 26 47 38 13 334 8 348 23 31 325 325 318 312 322 302 37 18 10 321 324 336 344 353 4 45 15 360 2 352 171 215 260
343 342 341 341 340 339 339 339 340 349 360 355 329 335 315 292 257 250 264 301 318 48 354 3 37 7 1 38 25 37 35 31 46 350 7 20 23 339 16 6 320 17 55 326 333 355 338 306 27 6 359 344 67 59 60 50 27 71 56 27 25 28 334 20 350 325 302 296 348 9 351 342 323 307 324 328 349 353 29 357 336 348 340 347 343 300 298
344 344 344 343 341 339 339 338 339 342 353 348 326 298 287 308 342 338 1 354 9 26 8 41 28 14 7 34 18 330 75 99 41 8 355 37 355 8 2 34 2 25 8 332 31 341 340 346 7 346 351 332 23 25 356 21 144 273 2 4 19 24 323 255 240 248 264 282 297 298 317 316 310 316 320 321 332 331 325 264 354 324 299 312 278 306 332
347 346 346 344 343 340 339 339 338 338 342 348 305 275 222 290 15 4 357 326 27 10 14 11 41 17 357 45 346 347 47 58 98 34 340 19 341 16 29 355 5 29 3 29 355 350 344 3 351 15 353 356 353 7 335 343 43 37 29 346 282 237 261 252 246 250 264 279 277 283 292 295 300 303 307 316 316 323 317 317 317 322 338 303 302 349 341
348 349 348 347 345 342 341 342 341 338 335 342 248 321 317 323 13 7 65 296 321 5 26 27 26 38 8 97 351 324 50 38 36 24 37 128 48 7 37 18 17 25 16 14 341 7 349 329 10 4 355 348 357 347 339 319 186 114 320 318 284 277 261 284 285 282 285 283 289 298 297 288 288 290 295 303 316 314 311 313 319 332 292 289 320 321 318
350 349 349 349 347 344 344 344 344 342 333 340 189 349 5 12 330 357 359 317 352 260 75 33 76 52 13 5 23 358 20 36 24 3 307 357 64 41 356 351 11 5 2 14 356 341 323 336 5 348 348 335 339 312 294 302 15 83 318 316 292 342 248 279 297 302 298 298 301 299 297 296 286 280 285 299 300 296 292 294 301 299 282 282 294 292 294
350 350 349 349 349 348 346 346 348 344 341 330 26 44 352 28 352 338 344 322 8 353 357 51 43 92 3 353 21 4 5 32 13 16 0 2 14 22 1 1 359 352 333 351 332 340 343 344 328 3 339 322 289 302 308 306 299 306 316 12 91 113 295 314 302 290 286 302 307 306 294 293 289 290 287 286 290 284 285 291 297 287 279 290 301 315 308
351 350 350 350 350 350 348 350 351 348 345 16 11 41 19 324 3 340 324 317 4 331 306 42 75 56 34 38 20 14 19 24 21 324 17 9 18 21 2 6 344 339 334 335 330 342 352 340 331 327 316 283 298 296 297 310 293 316 275 154 13 22 304 309 298 304 301 292 293 290 293 289 290 287 279 269 271 279 275 276 334 306 304 325 336 333 350
352 351 352 351 352 351 351 352 353 356 341 15 350 30 351 352 346 353 345 300 339 340 48 27 41 57 26 28 61 355 13 7 37 349 29 356 340 4 14 358 327 314 329 325 348 358 335 319 301 291 288 291 292 293 292 289 294 281 295 286 185 167 229 247 310 295 284 286 288 298 304 310 299 296 284 276 251 252 281 284 272 270 286 283 295 298 298
352 352 351 352 352 352 352 352 355 2 359 29 359 9 19 11 342 339 346 315 222 74 52 55 42 49 105 27 102 141 12 11 63 46 8 332 331 8 335 328 343 328 293 338 342 325 310 305 296 278 274 274 275 266 267 271 266 268 262 246 223 233 247 253 38 279 284 294 299 304 306 278 265 272 302 330 325 323 304 284 260 256 255 305 14 26 325
352 352 351 352 353 353 352 352 354 2 10 351 306 342 25 340 311 283 333 340 12 39 69 53 13 48 24 20 22 9 21 7 357 16 321 332 330 337 332 318 354 279 3 342 323 328 310 291 295 311 294 281 268 267 265 258 251 240 253 265 257 242 211 257 133 257 283 295 289 284 260 263 285 280 296 337 337 353 344 339 314 266 327 13 51 81 350
352 352 350 351 353 354 354 352 353 360 8 352 343 0 23 346 319 341 341 306 18 23 47 43 41 44 10 31 17 20 0 333 300 296 284 288 304 310 319 331 314 331 343 319 327 320 330 320 307 288 285 273 269 279 277 276 277 268 259 251 245 173 118 105 190 103 339 305 270 269 252 267 303 303 318 332 346 23 19 345 32 27 2 342 52 58 23
351 351 350 350 353 354 355 353 353 355 3 3 348 328 12 7 5 352 12 348 356 36 358 63 36 38 15 15 7 340 280 307 293 249 292 345 319 312 340 323 340 331 316 335 325 342 306 324 322 316 294 277 260 288 292 322 323 322 291 261 239 233 147 133 255 141 221 231 274 278 303 300 292 303 322 344 339 8 23 327 325 19 10 6 26 53 48
347 349 348 348 350 353 355 352 353 355 359 355 323 314 25 7 9 347 316 293 325 336 45 27 19 21 9 9 7 354 6 353 348 17 320 279 277 66 333 352 352 347 342 330 6 7 296 299 294 319 305 321 7 342 342 295 327 307 327 315 302 293 236 164 200 212 168 251 279 307 297 270 279 272 293 302 334 319 309 301 278 33 3 16 21 25 32
345 344 345 344 348 351 353 350 353 352 1 355 336 341 13 8 327 311 315 305 320 353 33 56 332 28 338 335 16 27 10 330 18 325 313 88 33 336 29 16 15 344 336 2 326 271 280 293 311 311 315 332 33 286 272 359 296 6 297 321 282 229 219 204 163 235 68 263 254 255 257 260 297 316 340 347 357 358 333 309 282 11 0 10 22 28 25
340 341 339 340 343 348 347 348 347 353 0 17 347 329 355 21 347 356 333 337 316 357 37 43 352 23 326 3 9 64 23 348 355 352 325 347 343 331 0 12 0 24 32 315 311 328 315 306 297 278 282 326 329 318 313 274 357 306 291 303 287 297 98 64 29 233 219 240 245 265 264 301 15 343 350 335 334 336 339 326 291 351 346 353 13 21 21
337 336 333 333 338 340 346 343 342 343 351 7 351 327 307 12 10 327 307 308 347 291 80 47 48 20 19 331 323 9 336 22 3 13 282 311 320 4 345 323 338 71 124 291 42 294 311 296 305 345 298 44 18 7 291 335 292 327 356 335 321 277 105 114 217 213 228 239 262 268 267 310 351 331 342 350 333 353 336 261 331 332 325 341 355 6 25
331 333 329 327 328 335 334 337 336 336 347 3 340 294 203 28 6 347 308 314 306 287 344 347 138 270 237 244 222 287 330 4 343 278 312 300 42 349 325 29 356 316 243 41 301 293 324 304 22 34 303 31 355 218 295 294 292 26 23 346 304 255 232 182 187 232 231 208 233 236 255 113 303 342 343 349 336 327 294 316 312 305 318 332 331 345 22
326 324 323 320 320 321 329 325 328 330 336 6 357 311 300 296 40 48 358 342 320 293 299 280 249 310 24 281 281 326 65 164 178 227 250 279 8 358 315 106 281 272 265 87 319 13 332 320 1 290 202 109 249 290 263 256 62 176 264 298 209 346 348 293 271 197 215 216 241 245 249 279 326 340 336 37 20 232 229 289 290 301 302 322 330 326 355
323 320 314 315 313 314 313 320 319 309 314 342 348 312 316 166 248 113 5 319 307 296 270 247 15 332 314 294 304 319 179 225 217 244 274 301 21 32 4 341 334 325 354 10 345 343 53 313 358 319 218 270 250 243 269 329 305 77 91 337 80 14 298 319 28 65 262 243 240 229 172 310 335 341 320 320 311 254 257 241 297 296 298 299 305 304 317
318 317 313 309 308 312 306 301 309 305 300 307 17 300 270 266 299 89 107 70 260 250 276 319 310 291 280 282 281 270 303 260 287 321 340 306 344 338 329 246 240 29 32 347 278 281 86 47 244 281 327 312 116 193 313 329 275 319 25 6 248 23 79 1 279 321 290 270 287 300 305 312 322 344 329 323 334 331 280 301 284 296 296 263 266 293 318
317 312 310 307 304 305 310 302 290 288 291 301 311 277 282 324 27 354 322 276 237 252 264 265 266 258 256 256 262 276 149 122 245 279 240 183 265 207 253 11 51 84 359 101 17 240 242 146 265 289 276 227 327 311 233 212 280 40 319 67 338 35 337 295 255 264 300 286 261 265 290 358 351 333 326 319 312 335 343 320 304 300 299 296 287 290 292
314 311 304 302 300 297 299 300 289 283 281 277 263 290 293 328 321 311 242 221 246 295 284 229 246 245 241 262 244 218 215 188 225 258 308 85 228 288 147 155 122 168 192 148 98 18 17 333 297 347 286 287 292 237 266 315 82 316 291 122 234 197 333 344 280 312 337 284 29 345 351 347 334 323 313 324 354 347 329 316 311 307 306 305 304 302 302
312 308 304 297 297 294 288 286 290 285 267 253 260 254 266 284 263 250 297 325 346 340 311 318 268 262 288 344 20 252 204 219 209 237 222 142 188 237 310 82 43 92 62 106 145 212 176 273 299 272 287 33 86 291 90 66 214 210 7 59 355 158 9 300 8 339 268 282 308 322 344 324 311 332 348 335 329 323 320 316 305 295 294 289 290 296 290
307 305 304 299 291 291 288 280 273 270 254 230 252 258 245 261 313 325 325 260 251 244 286 302 317 336 284 287 272 261 240 200 226 248 247 183 176 209 241 150 106 82 272 169 102 230 277 258 218 228 241 252 160 254 297 151 155 62 135 166 176 254 298 315 336 292 283 277 287 357 329 311 301 331 322 318 314 311 307 305 303 297 293 296 296 289 287
303 303 302 299 293 285 288 280 268 260 245 217 232 245 262 276 283 275 262 321 319 238 208 253 296 315 342 317 301 283 234 209 223 237 248 231 214 205 190 201 175 89 93 271 193 229 155 243 269 269 233 251 138 227 274 249 150 190 162 130 141 292 79 302 304 303 297 324 330 339 328 317 318 317 319 314 307 303 298 294 290 285 276 280 283 286 285
305 300 299 297 293 282 277 277 263 249 225 223 259 256 264 264 263 270 268 238 233 296 317 300 304 301 313 280 264 250 252 219 220 232 247 251 227 213 204 196 187 169 178 199 223 202 199 231 239 242 207 105 65 261 193 157 73 280 146 137 142 159 209 118 259 285 291 308 304 298 286 288 290 301 305 302 301 296 290 281 279 281 275 273 274 276 276
303 302 296 294 289 282 269 263 260 242 209 207 244 252 254 242 244 250 241 224 234 290 275 278 280 274 277 349 324 242 232 213 205 227 242 250 250 238 171 17 2 336 214 83 335 297 259 278 359 293 62 152 154 275 321 228 213 181 149 169 169 179 169 194 211 232 252 262 281 292 287 291 300 302 300 299 301 310 312 306 287 274 275 280 280 277 283
301 298 298 287 282 273 267 258 244 228 184 214 216 248 275 227 199 208 225 212 176 195 290 316 313 294 339 317 297 292 224 207 224 234 245 256 258 153 129 162 157 107 118 145 178 245 234 255 232 247 133 180 237 293 247 321 324 128 194 152 175 173 198 209 214 212 244 257 283 289 285 285 288 291 298 301 308 321 323 318 312 292 274 267 269 274 266
299 296 294 290 276 264 249 243 233 195 187 223 202 234 247 226 140 203 178 192 141 200 269 283 269 300 289 238 247 257 233 223 225 227 229 236 252 248 161 113 126 141 150 163 179 208 110 239 213 212 119 159 175 257 262 28 285 91 149 195 163 197 220 229 216 218 242 268 276 280 280 285 288 297 301 314 319 330 329 330 323 302 274 259 260 266 269
298 296 295 287 275 256 243 228 219 188 206 216 211 198 17 26 40 337 14 120 92 138 252 294 293 264 292 325 6 323 300 278 255 252 251 228 226 186 176 128 140 189 153 158 183 162 210 237 240 221 199 160 147 269 240 180 229 228 196 212 153 216 225 236 220 228 235 258 294 303 283 301 311 324 319 318 319 325 329 330 327 322 291 267 264 259 267
299 300 299 290 271 246 231 224 208 205 214 296 317 302 272 255 262 267 218 120 112 251 253 267 263 294 272 268 295 243 237 253 282 215 267 156 254 95 137 85 116 128 171 152 192 193 191 194 223 243 198 124 171 234 228 225 192 150 259 38 112 277 284 207 208 224 225 233 249 306 312 310 313 312 311 318 321 323 332 332 337 338 333 305 274 268 258
305 307 301 292 255 215 201 208 177 220 290 303 259 239 235 208 225 232 243 155 221 216 195 238 263 269 281 145 247 18 1 299 294 123 263 14 104 123 98 66 122 167 181 190 178 187 190 310 194 143 107 206 214 282 265 173 138 170 101 84 34 303 297 293 196 219 204 220 221 236 268 290 297 306 316 326 330 333 329 336 350 349 345 349 355 341 322
312 294 297 174 159 157 153 145 159 200 230 230 239 242 4 184 176 179 180 175 165 196 191 219 231 273 285 274 260 89 335 331 274 131 266 291 35 321 114 214 142 228 206 143 189 202 202 186 146 131 223 223 199 225 224 100 87 62 166 105 115 308 285 306 305 306 167 195 240 274 293 314 322 337 333 331 335 336 342 342 350 344 351 352 345 348 348
315 39 141 143 133 141 138 190 229 219 227 230 242 86 107 103 114 149 211 228 272 300 278 301 263 262 289 309 318 318 339 261 235 127 234 258 281 135 152 162 231 229 83 184 235 177 190 173 139 202 191 208 214 219 150 95 104 128 24 261 263 246 294 275 288 313 335 154 199 298 318 321 327 329 329 335 337 336 345 350 354 352 350 349 351 347 344
248 203 158 146 153 218 229 227 164 215 290 74 108 102 71 112 93 71 72 354 180 71 276 289 277 270 300 299 319 199 349 279 67 296 155 201 255 130 166 193 239 143 235 225 226 211 92 16 66 61 244 211 225 208 125 127 128 132 160 186 255 277 289 294 320 323 335 341 4 338 328 320 325 332 335 339 345 346 350 356 359 357 356 353 348 352 339
204 207 192 204 215 247 238 185 190 132 111 119 124 122 130 241 183 174 167 213 195 179 212 222 252 269 260 184 243 167 148 259 72 319 309 111 0 277 115 237 246 136 253 247 34 18 91 90 136 163 282 279 236 121 165 139 146 153 121 103 260 275 279 281 325 342 335 336 338 356 344 340 338 345 342 340 346 354 354 348 356 355 354 351 351 348 340
209 217 231 247 281 286 351 131 142 143 137 159 231 261 191 193 222 214 185 176 157 211 198 212 248 224 215 243 268 133 231 113 92 171 277 35 242 267 325 261 164 239 268 184 278 218 135 140 154 158 238 218 239 43 342 113 156 138 190 161 220 247 267 253 310 332 352 344 342 74 5 344 329 335 341 344 343 346 350 353 1 2 358 351 352 352 347
228 227 246 206 237 285 71 93 150 183 211 232 180 228 262 170 202 239 113 144 202 226 159 234 237 307 333 277 282 251 175 169 197 236 264 198 190 271 301 243 37 266 278 301 150 208 164 188 194 183 217 174 116 128 269 235 158 174 173 126 297 319 301 316 21 312 53 46 37 31 16 9 356 338 341 347 351 349 352 356 357 0 6 359 0 359 357
208 239 252 297 355 5 138 146 176 239 236 237 225 197 247 244 203 205 119 234 237 191 211 252 69 168 226 237 224 256 167 214 10 96 258 296 326 300 250 284 354 251 237 238 186 191 230 22 198 198 152 120 201 221 228 206 180 143 178 161 216 333 311 309 162 32 13 54 40 13 8 7 23 353 349 350 350 350 353 356 357 359 0 356 354 354 349
357 293 320 306 276 268 234 189 221 236 221 234 272 262 217 248 193 105 138 224 224 170 170 102 273 268 240 199 220 242 234 179 163 213 247 353 318 274 340 150 191 254 288 262 118 275 247 248 170 129 221 231 249 298 316 132 107 148 178 220 310 145 276 296 346 60 40 71 47 26 12 14 24 8 352 352 347 354 355 357 359 1 3 351 348 353 360
292 247 215 270 263 221 181 251 188 203 235 260 144 302 278 295 26 22 331 24 328 237 211 198 217 253 351 29 204 246 264 147 207 166 248 139 145 24 278 291 274 254 246 169 207 241 220 243 67 117 162 216 219 183 222 144 163 181 183 175 155 210 261 289 305 100 95 71 64 59 30 24 30 0 1 8 353 358 359 357 2 1 358 354 352 2 5
271 268 235 228 252 264 161 257 195 182 271 241 143 250 270 305 348 260 270 244 216 254 193 149 249 307 298 185 237 144 90 5 251 167 17 79 133 197 205 226 225 121 119 318 312 239 251 37 20 69 234 248 210 109 88 45 302 294 141 161 170 187 283 321 301 77 102 98 83 63 35 48 32 356 12 12 13 7 353 357 5 3 2 356 2 2 0
289 217 241 276 281 238 80 319 263 203 253 262 243 337 11 324 323 310 285 271 202 276 253 226 285 296 305 278 154 64 266 179 165 224 221 122 129 98 307 271 93 28 191 239 220 203 250 62 2 105 253 228 135 149 128 162 209 119 158 238 86 105 37 321 317 39 110 106 83 60 31 34 49 34 11 22 15 9 352 7 356 360 358 353 358 6 6
222 228 199 188 289 293 183 256 43 301 320 34 33 338 316 298 300 306 309 317 316 215 310 338 318 312 301 308 287 194 166 153 96 319 42 100 59 263 200 195 158 115 359 288 250 299 91 175 215 247 241 133 172 160 131 135 210 178 137 150 134 83 97 272 281 125 110 110 110 99 56 38 51 34 9 63 13 1 7 10 359 2 356 358 4 2 0
287 266 238 230 264 247 177 240 352 239 322 326 0 334 279 292 298 289 315 336 320 337 321 318 301 336 310 304 283 105 132 215 236 138 115 191 251 191 192 183 203 190 182 289 359 19 91 335 290 267 224 145 160 187 162 144 188 253 143 162 159 158 211 242 305 62 107 106 104 100 84 25 47 67 16 55 12 11 13 11 0 1 9 5 0 355 15
251 256 268 279 258 246 274 349 339 263 100 311 302 337 319 288 305 308 278 273 333 352 331 314 316 332 299 265 256 317 77 168 210 147 300 318 34 349 291 286 312 47 41 24 6 341 327 251 264 288 305 50 112 289 68 242 181 346 249 195 163 174 183 155 119 63 107 114 113 119 112 64 53 16 321 63 68 36 19 14 2 2 6 8 5 2 12
285 294 269 248 264 281 314 36 336 317 294 315 339 321 291 300 291 303 46 20 334 37 15 329 322 310 290 314 305 298 60 30 351 334 312 55 38 310 300 347 12 25 57 20 18 237 261 284 281 304 335 338 335 322 348 307 332 127 292 295 122 148 147 157 135 97 91 98 73 80 111 109 108 329 334 59 85 41 18 21 4 6 1 11 6 2 17
243 271 234 244 278 273 294 237 297 317 340 329 292 297 303 304 324 346 37 339 26 68 353 333 100 282 324 341 311 346 46 346 30 345 334 43 346 355 4 343 25 317 296 201 222 263 0 348 311 316 330 323 323 320 318 308 331 327 302 295 329 15 120 164 78 70 92 89 99 98 92 121 130 99 88 4 39 67 40 35 19 3 349 3 12 4 12
222 219 242 225 260 323 17 326 334 321 319 321 324 316 297 310 307 320 44 319 52 60 54 9 330 18 330 293 289 322 55 309 351 60 21 357 358 337 3 315 336 350 256 244 254 246 170 241 297 0 343 326 326 318 313 304 16 332 308 309 284 264 167 105 78 85 107 116 128 125 115 131 132 116 41 324 338 133 141 55 22 2 0 10 9 5 349
247 240 272 312 295 322 304 296 276 256 268 317 321 292 260 266 264 149 102 6 23 16 1 306 306 324 266 326 11 318 296 263 12 23 22 38 2 332 348 336 333 42 212 243 240 236 212 257 153 145 234 278 299 308 295 310 136 237 288 295 305 310 357 75 94 79 94 121 114 77 31 74 106 127 181 142 102 64 36 47 70 37 29 20 6 4 357